Temp
69 69 69 71 73 72 71 72 72 71 71 72 72 72 72 72 72 71 71 71 71 71 71 70 70 71 69 69 69 69 68 67 65 67 67 67 68 68 69 70 71 72 73
70 69 69 72 73 72 72 71 71 71 71 72 72 72 72 71 72 71 72 72 71 71 70 70 70 73 70 70 70 69 69 69 67 66 67 67 67 68 67 67 71 75 72
68 70 73 73 72 73 73 73 72 71 71 71 71 71 72 71 71 71 72 71 72 72 71 71 71 70 70 69 70 69 69 69 68 67 67 67 67 67 68 69 69 69 71
69 70 73 73 73 73 73 73 73 72 71 71 71 71 71 70 70 70 72 71 72 71 71 71 71 71 71 70 70 69 69 69 68 67 67 67 67 68 68 67 68 68 69
71 72 73 74 72 72 72 72 73 72 73 72 71 70 69 69 71 71 71 71 72 70 71 72 73 73 73 72 71 70 68 67 67 66 66 66 66 66 66 67 66 67 68
69 69 71 72 72 72 72 73 72 71 72 71 71 71 69 73 69 69 71 72 72 71 71 71 72 73 71 70 69 71 71 69 67 66 66 65 65 66 66 66 65 64 64
69 70 71 71 71 70 71 70 71 72 72 71 71 70 71 71 68 69 69 71 72 71 71 71 73 77 72 72 68 68 68 67 68 67 65 64 64 65 66 64 64 65 67
69 71 71 71 70 71 70 70 71 70 70 71 70 70 71 72 67 66 68 72 71 71 71 71 70 71 71 70 69 68 66 64 64 64 63 63 62 62 61 62 61 61 63
68 69 68 68 71 71 69 70 71 69 69 69 69 69 71 72 64 64 66 71 70 70 71 71 71 71 66 66 67 64 61 61 65 64 64 63 63 64 63 59 58 58 58
67 68 67 69 69 70 69 69 70 71 70 69 68 68 66 69 63 62 64 69 68 69 69 67 65 68 62 62 64 61 59 59 59 60 60 60 62 62 64 61 60 58 58
66 66 66 66 67 69 70 70 69 67 65 64 65 66 66 65 66 61 61 69 70 68 68 63 62 60 57 57 59 60 60 59 60 58 58 59 60 61 61 62 63 61 61
66 66 65 65 66 67 68 67 69 66 64 63 62 63 64 65 62 60 58 59 64 68 67 63 60 57 53 53 58 60 59 59 58 58 57 58 58 60 61 63 64 64 65
64 64 64 64 64 63 63 63 65 64 63 62 62 61 63 64 64 58 57 58 60 65 64 62 58 54 53 53 58 59 59 58 57 57 57 60 63 65 62 62 63 64 64
62 62 62 62 61 61 63 64 64 63 61 62 61 61 63 66 63 62 61 60 60 61 61 61 59 58 58 59 58 59 58 58 57 57 60 62 62 62 59 60 60 61 61
61 62 61 61 61 60 62 62 63 62 62 62 62 63 62 61 61 58 59 61 61 59 61 60 58 58 58 58 57 57 57 57 57 57 59 60 58 58 58 59 59 60 62
60 62 59 60 60 60 61 62 52 53 51 49 48 53 64 54 49 49 47 49 52 53 60 59 58 58 57 57 57 56 56 59 57 57 57 57 56 57 57 58 57 57 60
60 63 59 58 59 60 60 62 61 57 51 49 47 47 49 48 49 49 48 48 48 51 59 60 59 58 57 57 57 56 56 57 57 56 56 56 57 57 57 55 55 55 56
60 58 60 59 60 60 59 60 61 61 60 61 52 48 46 48 47 46 45 50 53 54 59 59 58 59 58 58 57 56 56 56 56 56 56 56 56 56 56 55 54 53 53
62 60 59 59 58 59 60 59 60 62 62 61 57 50 48 44 44 43 46 59 57 57 59 60 59 59 59 59 58 57 57 57 57 57 57 57 57 56 55 55 55 49 52
61 61 61 61 59 58 59 60 58 61 62 61 60 59 52 51 54 54 52 58 60 60 59 59 58 59 61 60 58 57 57 57 57 57 57 57 57 57 57 56 56 55 54
62 62 62 61 59 59 59 59 59 59 61 61 62 60 50 55 56 57 57 56 58 60 60 60 59 60 60 61 62 58 58 58 58 58 58 58 58 57 57 57 57 56 55
62 61 61 60 61 60 60 61 59 59 63 63 63 57 47 55 56 56 57 57 58 60 62 61 61 60 61 64 64 61 59 59 59 59 59 58 58 58 58 58 57 57 56
61 61 61 60 61 59 60 61 60 60 62 63 64 58 52 54 57 57 59 60 61 62 61 62 61 61 62 63 64 64 62 61 61 60 59 59 58 58 59 58 58 57 56
61 61 61 61 61 60 60 60 61 58 62 63 62 61 57 57 58 59 59 60 60 60 61 61 61 63 61 60 60 61 60 59 60 61 61 60 60 59 59 58 58 58 57
58 60 60 60 60 59 59 58 60 63 62 63 62 61 58 59 59 60 60 60 60 60 60 61 61 62 61 59 57 56 46 40 56 51 59 60 62 61 59 58 58 57 57
57 58 59 60 59 59 59 59 60 62 63 61 61 60 59 59 60 60 61 61 60 57 55 54 55 57 56 55 54 44 35 38 49 46 58 60 58 58 57 57 57 54 53
MSLP
1011.22 1011.54 1011.84 1012.15 1011.84 1011.77 1011.86 1011.79 1011.82 1012.03 1012.24 1012.46 1012.56 1012.84 1013.10 1013.36 1013.48 1013.94 1014.07 1014.32 1014.39 1014.49 1014.60 1014.58 1014.62 1014.65 1014.81 1014.92 1015.24 1015.36 1015.52 1015.75 1015.95 1015.25 1014.96 1014.51 1014.39 1014.16 1013.89 1013.85 1013.89 1014.11 1014.02
1011.53 1011.45 1011.75 1011.65 1011.19 1011.12 1011.23 1011.26 1011.40 1011.67 1011.84 1012.01 1012.08 1012.31 1012.52 1012.68 1012.98 1013.45 1013.68 1013.76 1014.02 1014.20 1014.37 1014.40 1014.34 1014.45 1014.43 1014.57 1014.69 1014.92 1014.97 1015.08 1015.32 1015.30 1014.91 1014.54 1014.31 1013.96 1014.04 1014.00 1013.74 1013.49 1013.29
1011.42 1011.39 1010.88 1010.49 1010.37 1010.23 1010.24 1010.45 1010.88 1011.11 1011.29 1011.53 1011.77 1011.92 1012.06 1012.21 1012.59 1013.04 1013.32 1013.50 1013.52 1013.54 1013.88 1013.93 1013.92 1014.11 1014.07 1014.20 1014.25 1014.42 1014.63 1014.71 1014.89 1014.95 1014.90 1014.56 1014.19 1014.00 1013.89 1013.69 1013.52 1013.31 1013.04
1010.54 1010.70 1010.34 1009.75 1009.51 1009.54 1009.56 1009.76 1010.24 1010.55 1010.68 1010.99 1011.24 1011.44 1011.57 1011.84 1012.15 1012.63 1012.93 1013.11 1013.14 1013.24 1013.40 1013.27 1013.32 1013.62 1013.73 1013.86 1013.83 1013.98 1014.19 1014.31 1014.43 1014.51 1014.53 1014.50 1014.36 1013.99 1014.11 1014.07 1013.72 1013.31 1012.92
1010.15 1009.97 1009.51 1009.19 1008.86 1009.05 1009.01 1009.06 1009.43 1009.79 1010.04 1010.26 1010.62 1010.80 1011.23 1011.72 1012.04 1012.20 1012.46 1012.52 1012.74 1013.04 1012.91 1012.82 1012.78 1012.92 1013.01 1013.24 1013.46 1013.55 1013.91 1014.11 1014.36 1014.54 1014.58 1014.37 1014.11 1014.17 1014.21 1013.84 1013.77 1013.35 1012.90
1009.40 1009.44 1008.97 1008.77 1008.50 1008.47 1008.34 1008.56 1008.70 1009.00 1009.42 1009.68 1010.06 1010.31 1010.79 1011.07 1011.27 1011.48 1011.69 1011.92 1012.14 1012.41 1012.59 1012.45 1012.52 1012.61 1012.80 1012.98 1013.07 1013.11 1013.22 1013.51 1013.80 1014.10 1014.16 1014.20 1014.13 1014.03 1013.79 1013.65 1013.47 1013.48 1013.28
1008.91 1009.17 1009.38 1009.11 1008.70 1008.49 1008.40 1008.66 1008.40 1008.43 1008.65 1009.17 1009.47 1009.86 1010.00 1010.47 1010.61 1010.77 1010.97 1011.31 1011.61 1011.80 1011.95 1012.05 1012.14 1012.19 1012.40 1012.78 1012.88 1013.01 1013.20 1013.34 1013.40 1013.60 1013.90 1013.95 1013.87 1013.80 1013.86 1013.68 1013.44 1013.29 1013.00
1009.44 1009.62 1009.69 1009.30 1009.30 1008.80 1008.79 1008.57 1008.34 1008.24 1008.13 1008.54 1008.77 1009.13 1009.56 1009.44 1009.68 1009.88 1010.30 1010.64 1010.80 1010.91 1011.13 1011.38 1011.78 1011.97 1012.21 1012.55 1012.90 1013.17 1013.37 1013.37 1013.33 1013.34 1013.50 1013.50 1013.50 1013.61 1013.73 1013.62 1013.49 1013.22 1012.76
1009.85 1009.77 1009.85 1009.48 1008.97 1008.36 1008.25 1009.37 1009.33 1008.76 1008.33 1008.25 1008.15 1008.52 1008.77 1008.81 1008.93 1009.31 1009.82 1010.24 1010.36 1010.63 1010.68 1010.86 1011.18 1011.64 1011.97 1012.33 1012.81 1013.30 1013.58 1013.55 1013.24 1013.13 1013.26 1013.29 1013.22 1013.05 1013.05 1013.28 1013.26 1013.25 1012.64
1009.54 1009.56 1009.65 1009.44 1009.08 1008.63 1008.20 1009.31 1009.91 1009.46 1008.51 1008.79 1009.36 1009.77 1009.23 1008.88 1009.05 1009.01 1009.42 1009.64 1010.00 1010.42 1010.65 1010.86 1011.08 1011.25 1011.85 1012.23 1012.64 1013.13 1013.51 1013.52 1013.47 1013.35 1013.30 1013.13 1012.94 1012.81 1012.62 1012.77 1012.70 1012.72 1012.50
1009.37 1009.30 1009.28 1009.37 1009.48 1009.44 1009.41 1009.37 1008.37 1008.91 1009.72 1010.25 1010.50 1010.42 1010.18 1010.05 1009.37 1009.29 1009.36 1009.15 1009.12 1009.66 1010.35 1010.95 1011.27 1011.43 1011.83 1012.25 1012.57 1012.96 1013.12 1013.27 1013.36 1013.39 1013.37 1013.26 1013.03 1012.82 1012.59 1012.32 1012.13 1012.07 1011.79
1009.18 1009.02 1009.03 1009.15 1009.25 1009.42 1009.35 1009.22 1009.15 1008.68 1007.91 1007.31 1007.80 1010.81 1009.44 1009.30 1008.82 1008.72 1008.94 1009.29 1008.79 1009.14 1009.80 1010.45 1011.08 1011.64 1011.96 1012.14 1012.47 1012.62 1012.80 1013.04 1013.20 1013.28 1013.21 1013.08 1012.86 1012.55 1012.26 1011.97 1011.48 1011.13 1010.80
1009.25 1008.99 1008.77 1008.85 1008.92 1009.07 1009.28 1009.36 1009.27 1009.15 1008.36 1007.06 1006.90 1007.24 1007.77 1006.69 1007.27 1007.30 1007.30 1008.22 1008.36 1008.78 1009.03 1009.54 1010.18 1011.03 1011.76 1011.99 1012.06 1012.24 1012.51 1012.80 1013.11 1013.19 1013.02 1012.75 1012.44 1012.06 1011.79 1011.43 1010.81 1010.41 1010.27
1009.24 1009.06 1008.78 1008.55 1008.52 1008.60 1008.49 1008.36 1008.50 1008.21 1007.99 1007.89 1007.85 1006.92 1005.63 1005.28 1005.18 1006.05 1007.55 1006.96 1007.39 1008.25 1008.63 1009.42 1010.06 1010.79 1011.47 1011.52 1012.00 1011.92 1012.10 1012.54 1012.74 1013.00 1012.86 1012.37 1012.22 1012.09 1011.93 1011.76 1011.27 1010.85 1010.28
1008.81 1008.62 1008.47 1008.29 1007.97 1007.93 1007.94 1007.62 1007.53 1007.49 1007.20 1007.23 1006.77 1006.13 1005.96 1005.50 1006.43 1005.64 1006.37 1008.24 1008.02 1008.21 1008.40 1009.39 1010.43 1010.87 1011.47 1011.64 1011.78 1011.88 1011.89 1012.12 1012.60 1012.77 1012.82 1012.42 1012.18 1012.37 1012.27 1011.81 1011.53 1011.40 1010.72
1008.38 1008.13 1007.90 1007.75 1007.55 1007.35 1007.38 1007.26 1006.62 1006.67 1006.67 1006.44 1006.51 1006.60 1006.00 1006.34 1006.10 1006.29 1007.12 1006.92 1007.08 1008.17 1008.77 1009.22 1010.03 1010.41 1011.05 1011.23 1011.44 1011.72 1011.86 1012.13 1012.28 1012.34 1012.89 1012.59 1012.15 1012.54 1012.55 1012.03 1011.90 1011.99 1011.41
1007.71 1007.39 1007.24 1007.18 1007.10 1006.90 1006.72 1006.95 1006.79 1006.18 1006.11 1006.06 1005.74 1006.33 1006.30 1006.36 1006.25 1006.81 1007.15 1007.71 1008.02 1008.24 1008.31 1008.72 1009.44 1010.16 1010.44 1010.65 1010.96 1011.51 1011.80 1011.78 1011.78 1012.15 1012.62 1012.56 1012.35 1012.39 1012.61 1012.31 1012.26 1012.36 1012.04
1006.89 1006.62 1006.63 1006.50 1006.41 1006.24 1006.07 1005.99 1006.00 1005.78 1005.60 1005.53 1005.13 1005.56 1005.70 1005.63 1006.16 1006.22 1006.98 1007.59 1008.28 1008.29 1008.09 1008.44 1009.23 1009.69 1009.89 1010.20 1010.72 1011.19 1011.53 1011.51 1011.58 1011.80 1012.26 1012.52 1012.25 1012.48 1012.60 1012.71 1012.69 1012.72 1012.54
1006.13 1005.92 1005.75 1005.71 1005.68 1005.53 1005.33 1005.13 1005.02 1004.74 1004.86 1004.89 1004.92 1005.07 1005.27 1005.66 1005.67 1006.29 1006.66 1006.59 1007.15 1007.62 1007.70 1008.08 1008.32 1008.91 1009.43 1009.70 1010.19 1010.61 1010.92 1011.23 1011.40 1011.51 1011.73 1012.26 1012.13 1012.19 1012.51 1012.58 1012.75 1012.69 1012.60
1005.21 1004.96 1004.93 1004.89 1004.85 1004.85 1004.72 1004.55 1004.33 1004.01 1003.74 1004.03 1004.25 1004.16 1004.59 1005.39 1005.68 1005.96 1006.16 1006.15 1006.31 1006.55 1006.91 1007.46 1007.90 1008.25 1008.74 1009.27 1009.54 1010.00 1010.50 1010.88 1011.17 1011.28 1011.38 1011.47 1011.79 1011.84 1012.17 1012.34 1012.33 1012.54 1012.72
1004.38 1004.11 1004.04 1004.00 1003.97 1004.00 1003.99 1003.86 1003.47 1003.34 1003.04 1002.84 1002.84 1003.08 1003.38 1004.28 1004.39 1004.54 1004.75 1005.10 1005.39 1005.64 1006.06 1006.67 1007.26 1007.65 1007.81 1008.22 1008.86 1009.49 1009.92 1010.21 1010.36 1010.54 1010.94 1011.15 1011.27 1011.40 1011.35 1011.62 1011.82 1012.00 1012.26
1003.49 1003.28 1003.18 1003.12 1003.01 1003.08 1003.08 1002.99 1002.84 1002.65 1002.38 1002.26 1001.92 1002.18 1002.69 1003.34 1003.69 1003.77 1003.89 1004.08 1004.32 1004.57 1004.95 1005.50 1006.15 1006.68 1007.35 1007.50 1007.97 1008.69 1009.17 1009.60 1009.53 1009.80 1010.23 1010.56 1010.97 1011.05 1010.91 1011.07 1011.16 1011.41 1011.69
1002.69 1002.49 1002.30 1002.15 1002.11 1002.03 1002.04 1001.99 1001.99 1001.85 1001.65 1001.49 1001.45 1001.75 1002.37 1002.50 1002.76 1003.16 1003.27 1003.35 1003.61 1004.06 1004.60 1004.89 1005.55 1006.01 1006.21 1006.61 1006.97 1007.37 1008.07 1008.37 1008.49 1008.83 1009.69 1010.16 1010.63 1010.68 1010.43 1010.66 1010.84 1011.10 1011.52
1001.99 1001.66 1001.45 1001.26 1001.21 1001.22 1001.17 1001.06 1000.95 1000.80 1000.69 1000.65 1000.79 1000.97 1001.40 1001.88 1002.21 1002.46 1002.69 1003.02 1003.26 1003.57 1004.06 1004.45 1004.81 1005.19 1005.67 1006.02 1006.35 1006.63 1007.16 1007.53 1007.93 1008.27 1009.09 1009.67 1009.99 1010.15 1010.38 1010.52 1010.70 1011.16 1011.35
1001.64 1001.14 1000.79 1000.57 1000.43 1000.40 1000.36 1000.28 1000.18 1000.07 1000.02 1000.04 1000.01 1000.26 1000.60 1000.96 1001.38 1001.72 1002.02 1002.52 1002.89 1003.24 1003.59 1003.94 1004.38 1004.80 1005.09 1005.58 1006.16 1006.52 1007.13 1007.41 1007.72 1008.30 1008.86 1009.49 1009.61 1009.73 1010.06 1010.43 1010.87 1011.20 1011.34
1000.94 1000.50 1000.13 999.90 999.77 999.59 999.45 999.34 999.26 999.16 999.22 999.36 999.33 999.54 999.94 1000.36 1000.65 1001.04 1001.50 1002.01 1002.45 1002.84 1003.36 1003.74 1004.13 1004.61 1005.06 1005.57 1006.10 1006.79 1007.49 1007.44 1007.97 1008.46 1008.77 1009.09 1009.59 1009.88 1010.11 1010.44 1010.86 1011.39 1011.68
Wind_Speed
3 2 3 8 8 9 8 9 8 6 7 7 6 6 7 7 7 6 6 5 6 4 4 4 5 2 3 3 4 3 4 4 3 3 3 1 3 4 4 4 4 5 4
6 6 8 12 10 10 10 8 7 8 6 7 7 7 7 7 7 7 6 6 7 6 5 4 5 2 3 4 4 5 4 4 4 3 2 2 5 1 2 4 5 5 4
5 8 11 13 10 12 10 8 7 8 8 7 6 8 8 8 7 6 6 5 6 6 5 6 6 4 4 3 4 4 3 2 3 3 3 1 3 2 3 3 4 5 4
8 9 15 10 9 9 9 8 8 8 8 8 8 8 8 7 7 7 7 6 6 5 6 6 6 6 5 5 4 5 4 4 3 2 2 3 3 1 1 2 4 2 4
10 12 13 10 7 7 6 8 8 8 8 8 8 7 7 6 5 7 6 6 6 6 6 6 6 6 7 6 4 4 4 3 3 3 3 2 2 2 3 2 3 4 4
7 7 6 7 7 7 8 8 7 7 8 8 9 9 7 7 12 14 9 7 6 6 6 6 5 6 6 8 8 6 6 4 3 3 2 3 3 3 2 3 2 2 3
7 5 6 7 7 7 6 6 7 9 8 10 9 8 10 10 14 15 14 6 6 7 6 5 5 4 6 6 5 5 4 2 2 3 3 3 3 2 3 4 2 3 4
5 5 6 8 7 8 6 7 8 6 8 7 7 8 8 8 12 15 14 8 7 7 6 7 7 5 5 6 5 3 2 1 1 1 3 5 4 4 3 3 3 5 5
5 5 5 6 7 7 10 16 13 6 5 6 5 8 10 9 13 13 10 6 6 6 5 6 6 6 7 8 6 5 1 2 3 1 4 7 8 8 6 1 3 3 4
4 3 2 3 6 6 8 8 12 15 6 4 7 9 8 6 7 10 8 5 6 4 4 4 5 7 11 10 7 6 4 4 3 3 3 4 5 6 9 5 3 4 3
4 4 4 3 2 2 4 3 4 6 11 8 10 14 10 8 7 12 14 6 6 5 4 3 2 11 10 8 7 6 6 5 3 2 3 3 4 4 4 4 5 5 5
5 5 4 3 2 1 0 2 3 5 6 4 6 7 8 8 7 5 10 10 6 5 5 4 6 10 10 10 7 7 7 5 2 1 1 2 2 3 3 5 7 7 7
5 7 6 5 3 2 2 1 3 5 6 5 8 8 12 9 7 13 16 13 9 5 5 10 14 13 11 7 8 8 6 2 1 0 1 2 3 3 5 5 5 5 5
6 7 6 6 5 2 1 4 2 5 4 7 8 10 9 13 10 7 4 9 10 6 9 9 10 9 6 6 4 5 4 3 2 1 3 2 3 3 3 2 3 4 1
6 6 6 5 6 4 3 4 3 4 5 6 8 7 10 9 4 4 11 1 2 3 10 6 5 4 4 4 2 3 3 2 1 2 2 2 2 3 3 3 2 3 3
6 6 5 5 5 4 3 5 11 11 9 11 10 5 7 3 11 5 3 9 17 17 4 4 3 4 5 5 4 3 2 4 2 1 1 2 2 3 3 3 2 3 2
8 9 5 5 5 5 4 5 7 5 11 11 13 9 9 2 2 8 8 8 7 7 3 4 5 5 5 5 5 4 4 4 4 2 1 1 1 1 3 4 3 2 3
9 12 7 5 5 5 5 6 6 8 5 5 9 7 9 11 4 9 13 11 3 0 3 4 4 5 5 5 5 5 4 3 3 3 2 1 1 1 2 2 2 2 3
9 7 6 5 5 7 6 6 6 8 6 6 2 2 1 1 4 10 11 4 5 5 4 4 5 5 5 5 5 5 5 4 4 3 3 2 2 2 1 2 1 2 2
9 14 11 6 6 6 6 7 6 7 7 6 5 7 4 4 5 6 6 7 6 5 5 6 5 5 7 6 5 5 5 4 4 3 3 3 3 3 3 4 4 3 2
8 8 9 7 6 6 6 7 7 6 7 7 8 7 12 7 6 5 6 7 8 8 8 7 7 6 6 7 7 5 5 5 5 4 4 4 4 4 4 4 4 5 4
8 8 7 7 7 6 7 6 7 7 8 8 8 4 15 7 5 5 6 7 8 8 8 9 8 8 8 8 9 7 6 6 5 5 4 3 2 4 3 3 3 4 4
8 9 8 7 7 8 7 7 7 6 7 8 7 5 6 6 6 6 6 6 6 7 6 6 6 6 5 6 7 9 8 7 7 6 5 5 4 4 3 3 3 2 2
8 9 9 8 7 7 7 7 6 7 6 5 6 6 7 8 7 7 5 5 5 5 6 6 5 7 6 5 5 5 4 5 4 6 8 6 5 4 3 2 2 2 2
7 7 8 8 7 7 7 7 7 7 6 7 7 6 6 6 6 6 6 5 5 5 6 6 5 7 8 10 8 8 9 12 8 6 5 5 5 6 5 4 3 3 3
9 7 7 7 7 7 7 7 7 7 7 7 6 6 8 8 6 5 6 6 5 4 6 4 6 9 10 8 8 10 7 11 8 7 5 5 5 4 4 5 6 4 5
Wind_Direction
210 220 254 258 234 222 213 211 208 200 209 213 215 207 207 208 210 207 216 227 231 214 234 226 256 250 200 196 194 184 204 176 212 292 243 286 279 255 280 294 285 265 260
222 215 228 253 235 220 215 210 199 206 207 215 217 209 213 204 202 205 215 213 213 219 228 227 245 249 271 217 194 200 203 204 182 237 262 276 234 283 273 274 254 250 260
225 234 242 233 218 215 211 205 199 203 203 215 211 214 215 200 190 206 214 223 225 221 213 204 236 245 262 219 207 210 207 202 214 203 257 271 276 251 303 277 290 290 251
248 257 255 231 215 216 211 200 199 198 195 205 210 218 219 194 192 207 209 211 225 220 218 212 212 213 219 225 207 219 220 203 210 226 251 254 244 299 243 274 297 271 291
231 230 239 245 219 226 213 200 199 201 207 202 204 203 202 202 216 206 206 211 214 231 226 225 228 226 218 215 189 217 179 191 205 222 244 259 248 247 219 232 247 284 294
253 259 260 253 249 225 228 218 197 194 218 196 209 204 209 214 213 214 199 197 203 216 226 231 236 232 221 223 209 197 176 182 195 198 222 226 258 243 237 230 214 254 297
234 276 317 292 255 251 242 229 221 210 198 213 213 201 202 208 210 214 206 198 200 207 213 216 229 213 186 170 161 143 110 103 201 180 228 230 249 225 349 297 265 257 258
21 14 342 347 338 333 277 250 246 232 213 209 210 200 211 217 207 213 212 202 203 210 210 208 209 194 183 172 168 144 87 16 358 293 240 263 255 273 237 248 269 276 281
14 8 1 338 359 15 23 347 315 271 240 205 188 202 209 222 204 204 191 201 204 219 207 199 183 190 174 165 149 158 181 296 313 341 301 289 288 286 254 253 263 251 282
356 7 47 5 359 358 355 327 338 309 251 319 4 346 305 281 241 233 206 198 199 202 190 183 223 172 160 157 151 161 182 217 234 304 321 318 309 302 300 226 226 234 242
300 325 9 57 16 333 305 220 34 57 75 63 10 355 347 356 343 258 233 203 193 179 182 171 191 142 141 144 149 161 185 169 219 243 286 297 298 295 291 277 241 221 228
296 310 315 338 338 68 53 354 188 165 150 98 105 277 271 244 231 224 228 251 178 169 174 158 156 160 154 163 165 164 163 157 165 211 281 284 269 264 280 279 258 231 227
287 292 299 317 328 3 54 339 201 217 207 174 153 137 257 250 224 195 175 183 184 165 166 168 160 169 176 168 180 156 139 130 118 38 303 289 280 296 307 307 300 295 259
280 280 286 299 299 322 288 285 241 192 217 188 200 226 210 218 196 162 234 175 171 166 147 146 157 158 179 152 146 135 133 158 158 225 245 260 301 341 330 302 308 305 37
272 268 269 262 272 264 238 255 235 238 222 220 229 222 232 272 341 150 135 38 44 146 127 122 141 143 159 166 158 172 152 129 189 233 290 330 359 338 318 323 342 321 38
277 276 252 261 259 258 226 283 210 197 237 264 259 249 274 349 62 55 217 154 143 156 127 139 158 155 169 176 170 173 154 193 203 163 302 313 35 343 313 333 13 343 38
263 275 260 237 247 252 224 231 270 224 220 240 260 214 183 291 185 129 136 110 139 138 150 144 159 176 181 173 163 178 190 188 154 148 236 326 9 50 355 12 360 340 353
260 258 255 236 232 241 242 229 231 256 259 240 236 225 192 197 232 127 125 116 115 127 153 150 182 177 173 169 172 180 195 168 169 166 184 244 120 66 22 11 9 337 349
264 254 238 229 226 229 237 243 236 252 245 245 247 254 147 180 185 142 164 153 164 173 178 187 169 169 182 179 177 183 178 178 180 163 161 215 200 141 217 242 280 312 341
259 249 246 243 231 230 233 242 235 240 257 242 223 239 140 132 186 187 186 196 183 175 175 192 174 171 178 193 179 178 181 183 189 192 211 204 224 192 214 226 214 226 252
257 256 238 240 230 228 224 230 243 229 244 245 239 204 176 187 202 197 188 192 198 185 182 185 182 190 184 190 190 176 184 193 198 198 204 239 220 211 211 217 224 219 225
247 250 243 231 239 229 229 224 228 232 242 245 255 180 170 186 181 192 202 202 198 193 187 185 183 179 203 194 187 180 184 204 195 196 200 198 213 201 181 194 194 204 211
251 249 245 236 234 236 234 228 228 225 229 231 231 183 182 202 194 194 198 197 188 187 180 172 171 187 191 186 182 181 183 200 208 165 162 162 192 196 180 190 188 179 203
262 247 245 242 233 230 234 232 227 237 241 233 206 202 186 191 194 199 185 185 184 171 167 177 180 179 175 168 165 164 150 141 145 151 153 166 186 189 194 184 155 151 141
279 263 251 246 238 230 235 230 230 237 238 220 205 194 194 189 183 180 175 171 172 168 176 177 178 179 166 155 154 143 142 146 140 143 141 161 169 159 147 137 141 118 97
276 263 252 239 236 233 230 230 227 221 208 213 212 189 186 185 184 166 159 166 166 131 123 118 121 122 124 126 128 127 145 134 131 156 153 134 140 137 131 133 125 118 120